Regional Weather Roundup
Issued by NWS

Home | Current Version | Previous Version | Graphics & Text | Print | Product List | Glossary On
Versions: 1 2 3 4 5 6 7 8 9 10 11 12 13 14 15 16 17 18 19 20 21 22 23 24 25 26 27 28 29 30 31 32 33 34 35 36 37 38 39 40 41 42 43 44 45 46 47 48 49 50
458
ASUS43 KTOP 182208
RWRKS

WEATHER ROUNDUP FOR KANSAS
NATIONAL WEATHER SERVICE GOODLAND KS
400 PM CST SUN FEB 18 2018

NOTE:  "FAIR" INDICATES FEW OR NO CLOUDS BELOW 12,000 FEET WITH NO
SIGNIFICANT WEATHER AND/OR OBSTRUCTIONS TO VISIBILITY.

KSZ001>006-013>018-027>032-041>047-182300-
NORTHWEST KANSAS

CITY           SKY/WX    TMP DP  RH WIND       PRES   REMARKS
GOODLAND       MOSUNNY   70  13  11 SW25G35   29.42F
HAYS           CLOUDY    72  34  24 S24G33    29.46F
HILL CITY      CLOUDY    71  25  17 S13G23    29.45F
RUSSELL        CLOUDY    73  37  27 S26G39    29.48F
$$

KSZ061>065-074>080-084>089-182300-
SOUTHWEST KANSAS

CITY           SKY/WX    TMP DP  RH WIND       PRES   REMARKS
DODGE CITY     SUNNY     77  31  18 SW29G47   29.50F
ELKHART        SUNNY     75  33  21 SW33G41   29.54F
GARDEN CITY    SUNNY     74  25  16 SW24G39   29.47F
GREAT BEND     SUNNY     71  38  29 S25G39    29.51F
LIBERAL        SUNNY     74  29  19 SW33G45   29.54F
PRATT          SUNNY     65  42  42 S35G41    29.56F
$$

KSZ066>073-081>083-090>101-182300-
SOUTHEAST KANSAS

CITY           SKY/WX    TMP DP  RH WIND       PRES   REMARKS
CHANUTE        CLOUDY    55  40  56 S21G30    29.80F
COFFEYVILLE    CLOUDY    55  42  61 S20G29    29.82F
HUTCHINSON     MOSUNNY   60  45  57 S32G38    29.62F
MEDICINE LODGE   N/A     65  47  52 S24G38    29.61F
NEWTON         PTSUNNY   56  43  61 S30G39    29.64F
PARSONS        CLOUDY    54  41  61 S12G25    29.83F
WICHITA INTL   CLOUDY    56  44  64 S26G36    29.66F
WICHITA JABRA  CLOUDY    52  43  71 S22G32    29.67F
WICHITA MCCONL CLOUDY    53  41  65 S24G31    29.68F
WINFIELD       CLOUDY    53  44  71 S25G31    29.75F
$$

KSZ007>012-019>026-033>040-048>060-102>105-182300-
NORTHEAST KANSAS

CITY           SKY/WX    TMP DP  RH WIND       PRES   REMARKS
CONCORDIA      CLOUDY    62  40  44 S31G39    29.54F
EMPORIA        SUNNY     54  39  57 S24G36    29.71F
LAWRENCE       MOSUNNY   57  35  43 SE30G39   29.71F
MANHATTAN      PTSUNNY   60  42  51 S20G36    29.64S
MARYSVILLE     MOSUNNY   55  39  54 S25G36    29.59F
OLATHE IND     PTSUNNY   55  33  43 S23G36    29.74F
OLATHE EXE     MOSUNNY   54  33  45 S22G39    29.75F
SALINA         SUNNY     62  44  51 S26G40    29.59F
TOPEKA BILLARD MOSUNNY   57  39  51 S29G38    29.66F
TOPEKA FORBES  MOSUNNY   57  38  48 S31G40    29.65F
$$




USA.gov is the U.S. government's official web portal to all federal, state and local government web resources and services.